Location: Koussan�
(15.2012°N, 12.5548°W)
Time: 12:18:41
(UTC+00:00)

Milstar 3 Cent rocket - Pass Details

Date: 20 October 2020
Orbit: 708 x 5145 km, 28.3° (Epoch: 26 November)

Event Time Altitude Azimuth Distance (km) Brightness Sun altitude
Rises 20:23:30 0° 290° (WNW) 6,862 7.9 -28.8°
Reaches altitude 10° 20:29:21 10° 284° (WNW) 5,066 7.0 -30.2°
Maximum altitude 20:40:36 40° 220° (SW) 1,963 4.2 -32.9°
Enters shadow 20:43:24 30° 177° (S) 1,992 4.0 -33.6°
